Погода в Толкачевке

Россия / Курская область     51°49′22″N   35°14′14″E
темп.,
°C
ветер,
м/с
пор.,
м/с
влажн.,
%
обл.,
%
осадки,
мм/ч
давл.,
гПа
погр.,
м
17 августа, ср
ср1700:00+22всв51245100 0.0 1013264
03:00+23всв5134597 0.0 1012331
06:00+23в51342100 0.0 1012402
09:00+22в31047100 0.0 1012302
12:00+24всв5949100 0.1 1012427
15:00+24всв4858100 0.1 1012454
18:00+24св61248100 0.0 1011483
21:00+22св8165191 0.0 1011538
18 августа, чт
чт1800:00+22всв61449100 0.0 1011416
03:00+21всв614445 0.0 1010468
06:00+19св513534 0.0 1010345
09:00+23всв7114771 0.1 1011712
12:00+27всв793854 0.1 10111327
15:00+27всв884158 0.1 10111526
18:00+25св594999 0.0 1011614
21:00+21всв410637 0.0 1012241
19 августа, пт
пт1900:00+21всв613625 0.0 1012435
03:00+19всв613705 0.0 1012441
06:00+18всв613837 0.0 1013576
09:00+21в8107168 0.0 1014870
12:00+25в795331 0.0 10141420
15:00+26всв8951100 0.0 10151812
18:00+23всв8106321 0.0 1016849
21:00+18всв714725 0.0 1017502
20 августа, сб
сб2000:00+18в614637 0.0 1017437
03:00+17всв513630 0.0 1017356
06:00+17всв512620 0.0 1017350
09:00+23в79510 0.0 1016855
12:00+28юв810350 0.0 10161709
15:00+29юв8103389 0.0 10162055
18:00+26юв61139100 0.0 1017934
21:00+23вюв7163592 0.0 1018748
21 августа, вс
вс2100:00+24вюв101830100 0.0 1016803
03:00+23вюв81629100 0.0 1017854
06:00+22вюв61435100 0.0 1018607
09:00+22в51136100 0.0 1018573
12:00+24вюв61127100 0.0 1018584
15:00+30юв791887 0.0 10171875
18:00+28вюв6112383 0.0 1017482
21:00+23вюв51421100 0.0 1018320